Location: Armaillé
(47.7146°N, 1.1278°W)
Time: 07:56:31
(UTC+00:00)

Daily predictions for brighter satellites

Satellite Brightness Start Highest point End
(mag) Time Altitude Azimuth Time Altitude Azimuth Time Altitude Azimuth
Cosmos 2056 Rocket 4.3 18:49:54 10° SW 18:54:54 55° WNW 18:59:57 10° NNE
Cosmos 1674 3.1 18:52:40 10° NNW 18:56:22 66° W 19:00:03 10° S
Landsat 7 4.5 18:53:31 10° SE 18:57:46 35° ENE 19:02:03 10° N
Cosmos 2233 Rocket 4.4 18:53:46 10° N 18:59:36 42° ENE 19:05:26 10° SE
Cosmos 1867 3.6 18:54:20 10° SSW 18:59:40 61° ESE 19:05:04 10° NE
Cosmos 1864 Rocket 4.5 18:56:09 10° N 19:02:20 68° E 19:08:25 10° SSE
CSL-04 Rocket 4.3 18:59:33 10° SE 19:04:40 40° ENE 19:09:46 10° N
Cosmos 1459 Rocket 4.2 19:00:42 10° NNW 19:06:46 78° W 19:12:50 10° S
Cosmos 1626 3.8 19:04:06 10° NNW 19:07:24 36° W 19:10:41 10° SSW
Cosmos 1703 Rocket 4.2 19:03:16 10° NNW 19:07:40 61° W 19:11:59 10° S
Cosmos 1850 Rocket 4.0 19:02:37 10° NNW 19:07:59 80° ENE 19:13:19 10° SSE
USA 215 3.4 19:03:19 10° NE 19:09:53 80° NNW 19:16:25 10° WSW
JB-3 4.4 19:07:57 10° NNE 19:12:01 66° E 19:16:06 10° S
Cosmos 1110 Rocket 4.1 19:07:03 10° S 19:12:05 53° ESE 19:17:08 10° NNE
SL-4 R/B 3.0 19:13:02 10° SSW 19:17:15 34° SE 19:21:24 10° ENE
NOSS 0 Rocket 4.2 19:12:09 10° NNW 19:18:21 73° WSW 19:24:28 10° SSE
Cosmos 1733 Rocket 3.8 19:16:07 10° SSE 19:19:55 31° E 19:23:44 10° NNE
Cosmos 1766 3.9 19:18:28 10° SSE 19:21:49 31° E 19:25:12 10° NNE
Cosmos 2237 Rocket 2.2 19:17:02 10° NNW 19:22:43 80° ENE 19:28:20 10° SSE
Resurs 01 Rocket 2.8 19:19:50 12° ESE 19:23:01 25° ENE 19:26:39 10° N
Cosmos 2061 Rocket 4.1 19:17:58 10° N 19:24:27 81° E 19:30:51 10° SSE
Cosmos 1331 Rocket 3.9 19:19:59 10° S 19:25:03 63° ESE 19:30:10 10° NNE
Cosmos 1725 Rocket 4.0 19:19:54 10° N 19:26:07 87° W 19:32:19 10° S
Cosmos 1378 Rocket 4.5 19:23:40 10° N 19:27:34 30° ENE 19:30:39 14° SE
CZ-4 R/B 1.9 19:24:11 10° S 19:27:58 60° WSW 19:31:52 10° NNW
Resurs 1-3 3.7 19:24:04 10° SSE 19:28:20 57° ENE 19:32:39 10° N
Cosmos 1805 3.2 19:28:18 10° S 19:32:06 83° W 19:35:57 10° N
Cosmos 1452 Rocket 3.7 19:26:51 10° SSW 19:32:08 81° WNW 19:37:27 10° NNE
USA 281 3.5 19:25:36 10° NNE 19:32:09 72° WNW 19:38:40 10° SW
Feng Yun 1-1 Rocket 4.4 19:26:43 10° SSE 19:32:18 82° WSW 19:38:04 10° NNW
Intercosmos 25 Rocket 4.5 19:25:37 10° N 19:32:46 51° ENE 19:37:03 11° SSE
Cosmos 968 Rocket 3.6 19:28:51 10° NNW 19:33:57 57° ENE 19:38:32 12° SE
SPOT 1/Viking Rocket 4.0 19:30:09 11° SE 19:34:48 42° ENE 19:39:42 10° N
YAOGAN 1 4.5 19:31:30 10° SSW 19:35:23 32° W 19:39:18 10° NNW
CZ-4B R/B 4.2 19:35:09 10° S 19:40:37 50° W 19:46:06 10° NNW
Landsat 5 4.2 19:37:22 10° NE 19:40:47 28° E 19:43:42 13° SSE
NOSS 3-4 (A) 3.5 19:37:08 10° S 19:42:25 44° ESE 19:48:06 10° NE
BREEZE-M DEB (TANK) 4.4 19:38:19 10° W 19:42:29 78° N 19:56:50 12° E
NOSS 3-4 (C) 3.5 19:37:18 10° S 19:42:32 44° ESE 19:48:12 10° NE
Cosmos 1733 4.2 19:39:21 10° SSW 19:43:00 48° WNW 19:46:40 10° N
FALCON 9 R/B 4.4 19:14:27 10° WSW 19:43:36 47° S 19:50:25 18° SE
CSL-04 Debris 4.2 19:38:57 10° SSE 19:44:22 87° ENE 19:49:52 10° NNW
Cosmos 1980 4.0 19:39:17 10° NNW 19:44:56 68° WSW 19:50:34 10° SSE
USA 267 3.8 19:39:21 10° SSE 19:45:45 54° SW 19:52:12 10° WNW
IGS 5A 4.4 19:42:59 10° S 19:46:58 48° W 19:50:59 10° NNW
Okean-O 2.6 19:46:16 12° SSE 19:50:23 68° ENE 19:54:49 10° N
Okean O Rocket 2.8 19:47:24 10° S 19:51:37 44° W 19:55:50 10° NNW
SJ 16-02 2.8 19:48:42 10° N 19:52:06 21° NE 19:53:11 20° ENE
Lacrosse 5 rocket 1.7 19:49:26 10° WSW 19:53:42 66° NW 19:57:46 10° NE
Cosmos 2221 Rocket 3.6 19:49:21 10° N 19:53:44 60° ENE 19:56:56 18° SSE
ATLAS 3B R/B 4.4 19:49:11 10° NW 19:55:10 25° NNE 20:01:21 10° ENE
CZ-4C R/B 3.4 19:49:03 10° NW 19:55:43 49° NE 20:00:54 22° ESE
SPOT 5 4.4 19:55:00 18° ENE 19:56:01 19° ENE 19:59:25 10° NNE
Ariane Rocket 4.1 19:59:14 23° E 20:00:44 27° ENE 20:04:57 10° N
SWARM A 4.2 19:58:58 14° S 20:01:51 73° E 20:05:21 10° N
Cosmos 2297 Rocket 2.4 19:57:08 10° SSW 20:02:46 76° WNW 20:08:28 10° NNE
SJ-6B 4.0 19:59:23 10° S 20:03:05 42° W 20:06:44 10° NNW
Cosmos 1271 Rocket 2.5 20:00:05 10° S 20:03:48 74° E 20:07:32 10° NNE
Meteor 1-15 Rocket 4.4 19:58:53 10° S 20:04:28 52° E 20:10:11 10° NNE
Cosmos 1464 Rocket 4.4 19:58:39 10° N 20:04:46 46° ENE 20:08:13 25° SE
Iridium 4 Rocket 4.4 20:02:58 10° NNW 20:06:51 39° W 20:10:47 10° SSW
Meteor 1-24 Rocket 4.1 20:02:03 10° N 20:07:51 49° ENE 20:10:55 27° SE
ISS -3.7 20:06:26 10° WNW 20:09:48 70° NNE 20:10:26 52° E
Cosmos 1726 4.2 20:06:51 10° SW 20:09:55 28° WNW 20:13:01 10° NNW
PKM 3.9 20:06:43 10° NW 20:10:23 62° NNE 20:11:25 40° E
Cosmos 1447 Rocket 4.4 20:04:47 10° S 20:11:00 88° E 20:17:13 10° N
GEOS 3 Rocket 4.0 20:05:58 10° NE 20:11:20 70° NW 20:16:41 10° SW
Cosmos 2082 4.1 20:06:26 10° S 20:11:29 36° ESE 20:16:34 10° NE
Cosmos 1302 Rocket 3.9 20:07:30 10° SSW 20:12:47 78° ESE 20:18:06 10° NNE
Cosmos 1891 Rocket 4.4 20:08:29 10° N 20:14:39 67° E 20:18:57 21° SSE
Cosmos 2219 3.1 20:11:57 10° SSW 20:17:31 68° ESE 20:23:07 10° NNE
USA 186 3.9 20:15:30 10° SSW 20:18:09 25° W 20:20:51 10° NW
MetOp-A 4.2 20:16:26 33° SE 20:18:28 53° ENE 20:23:24 10° N
Cosmos 1470 2.7 20:17:56 41° SSE 20:19:03 61° E 20:22:54 10° NNE
Cosmos 2227 Rocket 2.2 20:13:33 10° SSW 20:19:13 89° WNW 20:24:56 10° NNE
BlueWalker 3 2.4 20:27:34 10° SW 20:30:39 46° S 20:30:39 46° S
Geosat 3.9 20:29:29 38° SSE 20:31:27 90° ENE 20:36:31 10° NNW
ADEOS Rocket 4.0 20:29:34 30° E 20:31:31 36° ENE 20:37:57 10° N
IRS-1C Rocket 4.4 20:27:24 17° S 20:31:31 65° WSW 20:36:48 10° NNW
SL-16 R/B 2.2 20:29:30 10° NNW 20:35:14 85° WSW 20:37:33 38° SSE
Meteor 1-12 Rocket 4.2 20:32:52 10° SSW 20:38:40 84° WNW 20:44:24 10° N
Cosmos 1513 Rocket 4.4 20:34:32 10° N 20:40:40 86° W 20:44:15 27° S
H-2A R/B 2.8 20:44:38 56° ENE 20:44:38 56° ENE 20:48:53 10° N
Cosmos 1503 Rocket 4.3 20:40:19 10° NNW 20:45:25 47° ENE 20:45:51 46° ENE
Terra 2.8 20:48:27 32° NE 20:48:27 32° NE 20:52:04 10° N
MetOp-B 4.0 20:46:51 52° SSE 20:48:12 79° ENE 20:53:35 10° NNW
SPOT 3 Rocket 3.8 20:48:30 50° E 20:48:50 50° ENE 20:53:53 10° N
Cosmos 1992 Rocket 3.8 20:47:39 24° SSW 20:50:53 78° ESE 20:56:07 10° NNE
Meteor 2-5 Rocket 3.9 20:45:54 10° NNW 20:51:45 74° W 20:54:32 33° S
USA 215 4.2 20:46:22 10° ENE 20:52:29 44° NNW 20:58:36 10° W
Cosmos 220 Rocket 3.9 20:48:30 10° NNW 20:52:24 72° NNE 20:52:24 72° NNE
Cosmos 1486 Rocket 3.9 20:50:34 10° NNW 20:55:55 87° ENE 20:56:42 66° SSE
SL-4 R/B 2.3 20:51:42 10° WSW 20:56:23 78° NNW 20:56:45 72° NNE
Resurs 01 Rocket 2.8 20:57:22 25° SSW 20:59:19 38° W 21:03:28 10° NNW
CARTOSAT-1 4.0 21:00:14 51° SW 21:00:49 56° W 21:05:04 10° NNW
Cosmos 2263 Rocket 2.6 21:02:46 46° ENE 21:02:46 46° ENE 21:06:54 10° NNE
Cosmos 2034 Rocket 3.8 21:02:18 10° N 21:08:32 89° E 21:09:52 58° S
ATLAS 2AS CENTAUR R/B 4.2 21:18:46 22° ENE 21:18:46 22° ENE 21:21:25 10° NE
Cosmos 1025 Rocket 3.6 21:12:27 10° N 21:15:46 52° NNW 21:15:46 52° NNW
Tsikada Rocket 3.9 21:18:38 67° E 21:18:38 67° E 21:24:37 10° NNE
Cosmos 1777 Rocket 4.4 21:14:26 10° NNW 21:18:55 52° NNE 21:18:55 52° NNE
ERS-1 Rocket 3.1 21:22:31 67° N 21:22:31 67° N 21:26:55 10° NNW
Cosmos 1340 Rocket 4.4 21:26:14 10° NNW 21:28:37 33° NW 21:28:37 33° NW
SJ 16-02 2.4 21:26:36 10° NNW 21:30:05 43° WNW 21:30:05 43° WNW
Lacrosse 5 rocket 3.3 21:29:38 10° WNW 21:33:07 25° NNW 21:33:25 25° N
NOSS 3-4 (A) 4.4 21:27:50 10° WSW 21:33:17 44° NW 21:39:17 10° NE
NOSS 3-4 (C) 4.4 21:27:57 10° WSW 21:33:24 44° NW 21:39:24 10° NE
SPOT 5 3.3 21:34:11 58° WNW 21:34:11 58° WNW 21:38:26 10° NNW
Cosmos 1943 3.3 21:32:31 10° NNW 21:37:36 73° NNW 21:37:36 73° NNW
Cosmos 1603 3.9 21:33:25 10° NNW 21:38:29 65° NNE 21:38:29 65° NNE
Ariane Rocket 3.7 21:39:24 46° W 21:39:27 46° W 21:44:21 10° NNW
Cosmos 1354 Rocket 4.4 21:35:49 10° NNW 21:40:16 63° NW 21:40:16 63° NW
CZ-4C R/B 3.3 21:37:28 10° NW 21:44:37 59° WSW 21:46:05 52° SSW
ATLAS 3B R/B 3.3 21:40:20 10° NW 21:47:42 52° NE 21:48:41 49° ENE
Cosmos 2279 Rocket 4.3 21:43:11 10° N 21:48:21 55° NE 21:48:21 55° NE
Spot 2 Rocket 4.1 21:50:49 53° WNW 21:50:49 53° WNW 21:55:01 10° NNW
ADEOS Rocket 3.7 22:16:30 51° WSW 22:16:44 52° W 22:23:42 10° NNW
Terra 3.8 22:27:11 25° WNW 22:27:11 25° WNW 22:29:44 10° NNW
USA 215 4.2 22:33:00 35° NE 22:34:43 41° N 22:40:46 10° WNW
Cosmos 2344 4.0 22:29:21 10° NW 22:37:58 83° NE 22:38:57 75° ESE
NOSS 3-1 (C) 4.2 22:32:33 10° NW 22:39:12 65° NNE 22:39:12 65° NNE
Cosmos 2263 Rocket 3.9 22:44:18 25° WNW 22:45:44 28° NW 22:50:29 10° N
ATLAS 2AS CENTAUR R/B 3.3 23:06:05 58° NNW 23:06:05 58° NNW 23:12:39 10° NE
ATLAS 3B R/B 3.9 23:31:16 10° NW 23:35:56 37° WNW 23:35:56 37° WNW
Cosmos 2082 Rocket 4.2 23:43:36 10° NNW 23:46:25 24° N 23:46:25 24° N
ATLAS CENTAUR R/B 4.4 23:48:27 10° WNW 23:54:20 32° NNW 23:54:20 32° NNW
